Simultaneous Nadir Overpasses (SNOs) Predictions

Prediction of SNOs between LANDSAT-8 and METOP-A Satellite Orbit:

Table of predicted SNOs for the next 14.0 days since TLE Epoch: 1/26/2019
Index Date (LANDSAT-8) Time (LANDSAT-8) Lat,Lon (LANDSAT-8) SZA (LANDSAT-8 ) Date (METOP-A) Time (METOP-A) Lat,Lon (METOP-A) SZA (METOP-A ) Distance(km) Time Diff (sec)
1 01/27/2019 01:13:58 -81.43, 26.66 77.92 01/27/2019 01:13:20 -81.44, 26.80 77.92 2.40 38
2 01/27/2019 02:03:24 81.44,-165.60 102.09 01/27/2019 02:04:00 81.44,-165.60 102.10 0.27 36
3 01/29/2019 20:48:12 -81.44, 93.25 78.65 01/29/2019 20:47:34 -81.44, 93.43 78.65 2.86 38
4 01/29/2019 21:37:38 81.44, -99.03 101.35 01/29/2019 21:38:14 81.44, -98.99 101.37 0.86 36
5 02/01/2019 16:22:25 -81.44, 159.82 79.42 02/01/2019 16:21:48 -81.44, 159.64 79.46 3.10 37
6 02/01/2019 17:11:51 81.45, -32.49 100.58 02/01/2019 17:12:27 81.44, -32.38 100.60 2.05 36
7 02/04/2019 11:56:40 -81.43,-134.03 80.29 02/04/2019 11:56:03 -81.44,-134.16 80.31 2.19 37
8 02/04/2019 12:46:06 81.43, 33.63 99.71 02/04/2019 12:46:42 81.44, 33.82 99.75 3.25 36
9 02/07/2019 07:30:54 -81.43, -67.51 81.14 02/07/2019 07:30:17 -81.44, -67.57 81.16 0.96 37




NCC Satellite Simultaneous Nadir Overpasses (SNOs) Prediction Service
